Location: Colonia Mina de C?rbuni
(46.1667°N, 22.7167°E)
Time: 23:20:28
(UTC+00:00)

Vanguard 1 Rocket - All Passes

Search period start: 16 April 2024 00:00
Search period end: 26 April 2024 00:00
Orbit: 652 x 4219 km, 34.3° (Epoch: 16 April)

Date Brightness Start Highest point End Pass type
(mag) Time Alt. Az. Time Alt. Az. Time Alt. Az.
16 Apr - 00:59:00 10° WSW 01:09:40 21° SW 01:24:01 10° S visible
16 Apr - 16:36:42 10° S 16:39:27 14° SE 16:42:48 10° ESE daylight
16 Apr - 18:56:54 10° SW 19:03:04 37° SSE 19:13:51 10° ESE visible
16 Apr - 21:20:07 10° WSW 21:28:45 41° S 21:44:30 10° SE visible
16 Apr - 23:45:35 10° WSW 23:56:09 27° SSW 00:12:13 10° SSE visible
17 Apr - 17:46:43 10° SSW 17:51:38 27° SSE 17:59:14 10° ESE visible
17 Apr - 20:09:08 10° WSW 20:16:20 41° S 20:29:31 10° ESE visible
17 Apr - 22:33:25 10° WSW 22:42:56 32° SSW 22:58:49 10° SE visible
18 Apr - 01:02:44 10° WSW 01:10:42 15° SW 01:20:38 10° S visible
18 Apr - 16:37:18 10° S 16:40:35 16° SSE 16:44:45 10° ESE daylight
18 Apr - 18:58:29 10° SW 19:04:25 37° S 19:14:44 10° ESE visible
18 Apr - 21:21:55 10° WSW 21:30:06 36° S 21:44:33 10° SE visible
18 Apr - 23:48:09 10° WSW 23:57:20 21° SSW 00:10:26 10° S visible
19 Apr - 17:48:07 10° SW 17:52:57 29° SSE 18:00:25 10° ESE visible
19 Apr - 20:10:52 10° WSW 20:17:44 38° S 20:29:58 10° ESE visible
19 Apr - 22:35:33 10° WSW 22:44:13 26° SSW 22:57:57 10° SSE visible
20 Apr - 16:38:15 10° SSW 16:41:48 19° SSE 16:46:25 10° ESE daylight
20 Apr - 19:00:07 10° WSW 19:05:49 35° S 19:15:33 10° ESE visible
20 Apr - 21:23:51 10° WSW 21:31:28 31° SSW 21:44:20 10° SE visible
20 Apr - 23:51:33 10° WSW 23:58:33 15° SSW 00:07:40 10° S visible
21 Apr - 17:49:37 10° SW 17:54:18 29° SSE 18:01:32 10° ESE visible
21 Apr - 20:12:40 10° WSW 20:19:10 33° S 20:30:18 10° SE visible
21 Apr - 22:38:02 10° WSW 22:45:32 21° SSW 22:56:33 10° SSE visible
22 Apr - 16:39:27 10° SSW 16:43:06 21° SSE 16:47:54 10° ESE daylight
22 Apr - 19:01:49 10° WSW 19:07:16 33° S 19:16:16 10° ESE visible
22 Apr - 21:25:58 10° WSW 21:32:53 25° SSW 21:43:49 10° SSE visible
23 Apr - 15:30:07 10° S 15:32:02 12° SSE 15:34:08 10° SE daylight
23 Apr - 17:51:11 10° SW 17:55:43 29° S 18:02:34 10° ESE visible
23 Apr - 20:14:35 10° WSW 20:20:36 28° S 20:30:25 10° SE visible
23 Apr - 22:41:16 10° WSW 22:46:54 15° SSW 22:54:17 10° S visible
24 Apr - 16:40:46 10° SW 16:44:27 22° SSE 16:49:17 10° ESE daylight
24 Apr - 19:03:35 10° WSW 19:08:43 29° S 19:16:52 10° SE visible
24 Apr - 21:28:25 10° WSW 21:34:18 19° SSW 21:42:51 10° SSE visible
25 Apr - 15:30:45 10° SSW 15:33:20 15° SSE 15:36:11 10° ESE daylight
25 Apr - 17:52:49 10° SW 17:57:10 27° S 18:03:32 10° ESE visible
25 Apr - 20:16:40 10° WSW 20:22:05 22° SSW 20:30:15 10° SSE visible
